Wind_Speed
35 36 37 35 34 31 30 33 35 38 41 43 44 44 44 45 46 45 45 44 43 43 42 43 44 46 45
34 38 36 37 35 31 28 32 34 36 38 40 43 44 44 43 44 44 43 43 42 42 43 43 43 44 45
31 33 37 31 28 32 32 34 33 35 39 39 38 40 41 42 42 43 43 44 44 44 44 43 44 44 43
29 27 21 33 31 31 30 32 32 34 35 35 39 40 41 42 42 42 41 41 41 41 41 41 42 43 42
18 29 28 28 27 31 30 34 28 37 33 30 34 35 38 40 40 40 39 38 38 38 40 40 40 40 42
25 23 28 29 32 28 27 28 15 25 22 35 33 37 36 36 38 38 39 40 41 41 42 41 41 41 41
28 28 31 33 30 34 29 27 27 36 34 32 35 35 36 37 39 40 40 41 41 41 42 41 41 40 41
30 32 30 36 33 31 33 33 31 33 28 15 35 35 36 37 40 40 38 37 37 37 38 39 39 40 40
24 32 34 31 30 31 25 23 14 27 34 24 21 32 36 39 36 28 31 34 37 37 38 39 39 37 37
30 30 30 32 28 25 27 21 19 11 22 16 27 21 8 20 23 36 33 34 34 36 37 37 37 35 33
26 28 28 27 28 26 26 26 26 22 39 31 22 28 16 14 31 31 33 34 32 34 35 34 35 37 29
25 26 27 28 31 32 34 33 32 34 43 40 26 27 23 14 14 28 31 32 30 31 31 32 30 29 33
23 27 28 32 35 31 32 32 34 34 32 31 30 33 27 19 11 25 29 27 33 28 29 29 26 23 21
25 29 29 29 30 29 29 30 28 31 29 27 28 26 27 26 23 22 28 10 28 28 26 17 14 20 19
25 27 27 28 30 28 26 26 20 22 31 34 31 28 28 29 16 21 23 23 28 28 22 9 2 12 16
27 25 26 26 27 29 24 21 20 23 25 28 31 28 26 11 11 20 22 23 28 26 20 7 3 8 13
26 27 25 26 26 25 23 21 21 22 23 25 23 15 10 10 12 27 27 27 25 20 20 17 8 3 13
Wind_Direction
298 304 306 302 300 299 295 291 288 290 293 294 293 292 290 289 287 285 284 281 278 274 272 269 266 264 261
297 304 302 302 302 301 298 293 290 290 294 291 293 293 292 290 288 287 284 281 278 275 272 271 268 265 262
292 295 295 304 308 304 300 297 293 292 291 294 294 291 290 290 288 286 283 280 278 275 272 269 266 264 261
286 291 309 309 307 305 303 301 299 294 292 293 290 290 290 289 287 285 282 280 278 275 271 267 266 263 261
317 310 310 312 306 305 299 299 300 297 294 293 292 290 287 286 284 283 282 280 276 271 268 266 264 260 259
307 304 303 303 302 302 304 306 307 311 301 298 295 291 288 285 285 285 283 280 276 272 269 266 263 261 257
302 298 297 299 305 306 302 299 297 300 303 296 297 290 290 288 287 285 284 282 279 276 272 267 264 258 255
301 298 300 308 306 304 303 300 297 297 297 290 298 291 294 289 289 287 285 285 283 278 273 268 263 259 255
305 307 307 308 309 312 307 307 303 303 304 294 295 297 297 289 286 286 289 286 283 279 274 267 262 258 255
318 316 313 311 312 308 303 301 302 307 307 309 304 309 310 291 297 297 291 287 285 280 275 268 262 253 248
315 312 312 312 311 310 305 298 296 287 293 306 301 300 288 299 303 298 295 290 287 283 280 270 261 253 244
314 313 314 312 312 311 310 306 296 287 297 298 284 292 292 293 296 298 303 299 291 282 276 270 261 250 242
313 311 310 309 311 312 312 312 308 306 304 306 292 292 289 292 291 297 306 313 301 288 281 265 246 236 231
309 307 310 312 311 313 311 314 313 313 318 319 312 306 302 297 294 293 305 305 311 318 318 319 249 220 217
312 311 311 312 309 314 312 313 310 315 319 327 329 324 311 295 292 296 317 327 326 326 336 329 222 204 205
311 309 306 306 309 312 314 311 310 314 315 323 328 334 337 332 333 326 341 337 333 333 342 325 322 209 204
307 305 305 305 310 310 312 313 312 314 316 322 325 332 331 331 310 3 345 347 346 347 347 351 347 168 191
Height
728 720 715 711 708 705 700 694 687 681 677 671 663 657 652 647 642 638 635 632 629 626 625 623 622 621 620
722 714 710 703 699 696 691 685 678 672 667 659 654 648 642 636 632 627 623 620 617 615 613 612 610 609 608
717 712 702 699 692 688 682 675 670 663 655 651 645 637 631 625 620 615 611 608 605 602 600 599 598 597 597
711 704 699 693 688 680 671 666 660 652 645 642 633 627 621 615 609 603 599 595 592 589 587 587 586 585 585
707 700 694 686 680 674 667 656 651 644 634 630 621 616 609 602 597 591 587 583 580 576 574 573 573 573 573
703 696 688 682 674 669 661 654 635 635 627 619 615 603 598 591 585 580 574 569 565 562 560 559 558 558 559
699 692 683 677 670 661 656 649 639 629 624 609 604 594 587 580 573 567 561 556 551 548 545 544 544 544 544
693 686 679 672 667 659 650 641 632 624 620 605 595 584 577 569 561 554 549 544 539 535 532 529 528 528 529
686 680 673 666 661 653 645 637 624 616 607 602 589 577 569 554 547 543 538 532 527 521 517 514 513 514 515
677 671 665 658 654 650 643 634 625 611 599 598 585 578 557 544 540 533 524 518 513 507 503 500 499 500 500
672 666 659 653 647 642 638 632 621 613 598 595 582 575 570 548 530 521 517 506 500 492 487 485 484 485 485
669 662 655 648 641 635 629 623 616 608 593 588 580 571 559 546 531 511 507 498 490 482 475 469 469 470 472
666 659 652 644 635 629 622 615 606 596 589 581 573 562 554 542 530 515 502 489 482 472 463 456 454 457 461
663 655 648 639 632 626 618 609 600 586 581 574 566 557 546 535 527 512 502 492 476 466 456 448 446 450 455
659 652 645 638 628 622 615 607 600 589 574 564 558 551 542 531 521 511 499 488 476 465 455 448 447 448 451
655 649 642 635 627 618 612 606 598 587 577 567 556 544 535 525 520 511 499 488 476 465 458 451 446 446 448
652 644 638 631 624 615 608 603 594 586 576 568 559 553 544 534 521 514 504 492 480 469 462 455 449 444 447